Theta_e
296 301 305 309 319 322 324 327 327 327 326 326 326 320 322 323 322 322 320 320 320 319 319 319 318 317 316 319 321 321 321 321 321 321 320 318 317 316 315 315 315 315 315
293 296 301 306 311 317 318 326 326 327 325 325 324 320 322 322 323 322 319 319 319 319 319 320 319 318 316 313 320 322 321 320 319 321 321 318 316 315 315 315 316 316 317
292 294 297 304 308 312 317 321 325 325 325 324 323 320 322 323 323 323 322 321 319 319 319 320 320 319 318 314 314 320 321 320 319 321 320 318 317 316 316 317 317 317 317
290 292 296 297 302 310 313 319 322 324 324 324 323 321 321 323 323 322 322 322 322 320 319 320 320 320 320 316 314 317 321 321 320 319 320 319 318 317 317 317 317 317 317
288 291 293 294 297 303 308 315 319 320 324 324 324 324 323 323 324 323 323 322 322 323 320 319 321 320 319 319 315 315 319 321 321 321 320 320 320 320 319 319 318 318 318
286 288 291 293 296 302 305 307 314 315 319 324 324 324 324 323 323 324 324 324 324 323 324 323 321 322 322 321 320 319 318 321 321 321 320 320 320 321 322 321 320 319 319
284 287 288 291 293 297 301 301 306 309 313 317 318 322 324 324 323 323 324 324 324 325 325 325 324 322 322 323 321 320 320 320 321 322 321 321 320 320 321 322 322 322 321
283 285 287 289 291 292 296 299 301 308 309 314 314 316 318 322 322 323 324 323 323 324 324 324 324 323 321 322 322 322 321 320 320 321 322 322 322 322 321 321 322 322 322
280 283 284 286 288 290 293 297 300 302 305 311 313 312 314 316 316 320 322 323 323 323 323 324 324 324 323 323 322 321 321 321 320 320 321 322 322 323 322 322 322 323 322
278 279 283 285 286 288 289 291 292 295 298 302 307 311 311 310 310 314 314 316 320 321 322 322 322 323 323 324 323 323 321 321 321 320 320 321 321 322 322 322 322 323 322
278 278 280 283 285 286 287 288 290 292 294 296 299 300 301 303 308 313 312 316 317 316 318 320 321 322 322 323 323 324 323 322 321 320 320 320 321 322 323 322 322 323 323
277 277 278 280 283 284 285 286 287 289 291 293 294 295 296 297 300 305 312 311 314 315 316 317 318 320 321 321 321 322 323 322 322 321 320 320 320 320 322 322 322 323 322
277 277 278 278 280 283 284 284 285 286 287 288 289 292 292 293 295 297 300 305 308 313 314 316 317 319 320 321 321 321 320 321 321 321 321 320 320 319 319 320 322 322 322
277 277 277 277 278 280 282 283 283 283 283 284 285 287 288 290 293 295 298 300 300 303 311 312 314 317 318 319 319 320 320 320 319 321 321 321 321 321 318 319 320 322 322
277 276 277 277 277 277 278 280 281 282 282 282 282 283 285 287 287 289 292 296 297 299 301 304 307 311 312 313 316 316 317 319 319 319 320 320 320 320 320 319 319 319 320
276 276 276 276 277 277 277 277 277 278 278 280 281 281 283 284 286 288 290 292 294 295 298 300 302 303 305 307 308 310 311 312 315 316 318 319 319 320 320 321 321 321 321
276 276 276 276 276 276 277 277 277 277 277 277 278 278 279 281 283 286 288 289 291 292 296 296 297 298 298 300 302 303 305 307 308 310 312 315 317 318 319 320 320 319 319
276 276 276 276 276 276 276 276 276 276 277 277 277 277 278 278 279 281 284 287 288 290 291 291 292 292 293 294 295 297 297 299 301 303 305 307 310 312 314 315 314 315 313
276 276 276 276 276 275 275 275 275 275 276 276 277 277 277 278 278 278 280 283 285 286 286 286 287 288 289 290 291 293 294 295 296 298 300 300 300 301 302 303 306 307 310
276 276 276 276 276 275 275 275 275 275 275 275 275 276 276 277 277 277 278 278 280 283 283 284 284 285 286 287 287 288 290 291 293 294 295 296 297 297 298 298 299 300 301
276 276 276 276 276 275 275 275 275 274 274 274 274 275 275 276 275 276 276 276 277 277 279 281 282 283 283 284 285 285 286 287 288 289 290 291 292 293 293 293 294 294 295
276 276 276 276 275 275 275 274 274 274 274 274 274 274 274 275 275 275 275 275 275 276 276 276 277 278 281 282 283 283 284 284 285 286 287 287 288 288 289 289 289 290 290
276 276 276 275 275 274 274 273 273 273 273 273 273 273 273 274 274 274 274 274 275 275 275 275 276 276 276 277 279 281 281 282 282 283 284 284 285 285 286 286 286 286 286
275 275 275 273 273 273 273 273 273 273 272 272 273 273 273 273 273 273 274 274 274 274 274 274 274 275 275 275 276 276 277 278 279 280 281 281 282 282 283 283 283 283 283
275 275 274 273 273 273 272 273 273 272 272 272 272 272 272 272 272 273 273 273 273 273 273 274 274 274 274 274 274 275 275 275 276 277 277 277 278 279 279 280 281 281 281
274 273 273 273 273 272 272 272 272 272 272 272 272 272 272 272 272 272 272 273 273 273 273 273 273 273 273 273 273 273 273 274 274 274 274 275 275 276 276 277 277 277 278
Wind_Speed
12 6 5 12 19 22 28 38 35 44 42 46 45 47 47 45 42 38 36 36 37 35 34 31 30 28 30 26 22 22 19 22 15 15 13 16 16 18 17 15 13 10 8
15 12 4 6 11 15 18 37 34 41 38 44 45 49 50 47 44 40 36 37 38 38 36 33 31 29 30 33 25 25 20 21 20 15 15 15 17 18 17 17 15 13 11
17 14 8 3 10 20 17 25 37 44 39 43 42 47 49 48 45 42 38 37 38 38 36 34 33 30 31 34 35 26 24 21 20 17 18 17 19 20 21 20 18 16 16
19 17 14 9 3 12 17 24 27 40 40 40 40 40 44 46 44 43 43 40 38 38 38 36 34 33 32 33 36 35 30 23 22 24 21 18 20 21 22 22 22 20 19
20 18 16 14 8 5 9 23 30 29 40 41 38 38 41 45 45 44 44 44 42 39 38 39 37 35 34 33 35 38 34 30 27 25 27 25 23 24 26 23 23 21 22
21 20 17 15 13 4 4 6 18 24 33 41 40 41 42 42 45 45 45 45 45 44 42 40 40 37 35 35 34 35 37 36 34 31 31 32 31 27 24 24 24 26 25
21 19 18 16 17 13 5 4 9 12 15 28 25 37 42 42 46 45 45 45 45 45 44 43 41 41 39 37 36 35 35 37 38 36 35 35 34 32 29 27 28 27 28
21 20 19 18 16 14 9 7 8 9 10 9 14 17 24 39 38 45 46 45 44 42 42 42 42 40 40 40 40 39 39 39 39 39 39 37 36 33 33 31 28 27 27
20 20 20 20 18 16 15 12 8 4 8 9 9 6 3 2 9 27 41 46 43 43 41 41 41 41 41 39 41 42 44 43 42 42 42 41 40 38 36 33 33 31 29
19 20 18 18 18 17 17 14 12 9 6 9 11 14 14 15 17 21 22 20 33 45 42 38 42 42 41 41 42 41 44 45 45 45 46 46 45 43 40 40 36 35 34
17 17 17 15 16 16 14 13 11 9 8 8 7 8 11 13 18 27 28 22 26 22 29 42 38 40 44 43 43 44 44 40 42 45 47 48 49 49 47 45 43 42 41
15 15 15 14 11 12 14 13 12 11 9 9 9 9 7 4 4 13 31 29 29 26 26 27 34 35 43 44 42 43 40 38 41 42 45 50 52 53 53 49 48 47 45
13 14 13 12 12 11 11 12 14 13 12 11 10 8 6 6 5 4 2 10 14 28 27 30 30 31 36 42 43 45 36 42 44 46 48 49 49 50 50 50 50 48 47
11 11 11 11 11 11 9 11 12 13 14 13 12 10 9 9 9 8 3 2 5 8 19 25 28 34 37 34 35 44 45 47 42 51 51 51 49 48 49 48 51 53 53
10 9 8 9 9 9 9 10 10 10 11 13 14 13 12 12 13 12 9 6 4 1 5 11 15 19 23 28 35 39 42 46 51 50 51 49 51 48 50 48 48 48 51
6 7 7 7 7 7 7 6 7 8 8 9 8 10 11 10 9 8 7 5 4 4 0 3 4 7 10 13 17 21 27 35 44 52 51 49 51 48 50 47 49 46 49
5 5 5 7 7 7 6 6 6 6 7 8 7 8 10 11 11 9 5 4 4 3 4 7 8 7 6 5 6 10 14 18 22 30 39 47 42 44 51 51 51 49 54
5 3 3 5 6 6 6 6 7 7 7 7 6 7 9 10 9 8 7 5 3 3 4 5 5 6 6 7 8 8 9 8 7 10 16 22 31 36 41 45 48 48 47
6 4 3 4 5 6 7 8 8 8 8 8 7 6 8 7 8 9 7 6 6 6 5 4 4 3 2 2 3 5 5 7 9 10 10 8 9 11 17 22 26 28 28
8 6 6 5 6 6 7 8 8 8 8 8 8 8 10 8 6 7 8 6 4 4 4 4 3 2 2 2 2 0 1 2 3 4 6 8 8 10 11 11 13 15 17
11 9 7 8 8 9 8 9 10 10 10 9 8 7 7 9 8 7 6 6 5 3 3 4 3 3 2 2 2 3 3 1 0 2 3 4 5 5 6 7 7 8 10
14 12 11 11 11 11 11 11 11 10 10 10 10 9 8 7 7 6 6 5 4 3 3 3 2 3 3 3 2 2 2 2 2 1 1 2 3 4 5 5 5 6 7
17 15 14 13 13 12 11 11 12 12 11 11 11 10 9 8 8 7 6 5 4 3 3 3 3 2 1 1 2 4 3 2 1 1 1 2 2 3 3 4 4 4 4
18 16 15 14 13 12 13 13 13 12 12 11 10 9 9 9 8 8 7 7 6 5 4 3 3 2 2 1 1 1 2 2 2 2 2 2 2 2 3 3 3 3 4
16 18 16 15 16 15 15 14 15 14 13 12 11 10 10 10 10 9 9 9 8 7 6 4 3 3 2 2 1 1 2 3 3 3 3 3 3 3 4 4 4 5 5
17 18 19 18 18 18 17 16 15 15 15 13 12 12 11 12 11 11 12 11 10 10 9 7 5 4 3 3 3 2 3 4 4 4 4 4 4 5 4 4 5 6 6
Wind_Direction
8 318 275 238 217 223 186 185 185 195 206 212 212 207 205 206 207 210 214 212 214 215 216 216 216 213 212 209 210 209 204 197 190 201 223 226 217 214 208 212 219 221 226
12 7 323 265 217 200 205 190 187 203 210 217 214 209 208 209 210 210 208 211 213 215 218 217 218 216 216 217 217 215 215 207 201 208 215 221 214 214 216 219 225 229 238
8 18 11 163 236 230 219 192 185 191 194 210 214 211 212 212 214 215 215 215 216 219 221 221 220 219 219 219 222 223 214 211 207 202 216 225 215 215 221 223 230 235 243
11 18 22 41 145 209 214 214 204 193 198 193 210 212 215 218 218 218 219 220 223 223 225 227 226 225 225 222 221 224 221 218 215 210 220 223 221 223 225 231 232 237 243
10 20 26 16 41 137 187 214 217 201 200 206 202 219 216 221 223 222 221 223 226 228 229 230 230 229 230 229 225 225 225 225 223 220 221 224 225 225 227 233 237 244 247
17 18 21 15 29 79 109 162 203 217 209 206 202 206 213 216 224 227 227 226 228 231 233 234 234 233 235 235 234 233 231 228 226 225 225 229 232 237 236 236 243 239 243
18 17 23 20 33 48 113 119 157 170 191 200 205 196 196 204 211 221 225 228 230 233 235 237 237 238 236 235 234 236 237 236 235 232 230 233 237 239 239 240 244 249 253
12 16 19 24 27 32 43 83 118 130 136 160 189 187 186 196 203 216 222 224 229 234 237 237 238 241 240 237 234 233 234 235 234 235 237 241 245 248 248 251 260 265 257
12 16 20 25 22 28 35 43 71 126 126 143 152 134 194 268 271 206 218 218 223 227 233 238 240 241 243 242 240 239 237 236 236 236 238 242 245 247 248 250 248 247 245
11 13 19 24 25 28 28 39 48 68 106 155 178 223 219 228 275 271 246 227 226 222 231 230 239 241 243 245 245 243 243 241 239 238 237 238 241 243 246 247 247 245 247
7 9 17 24 31 33 32 38 42 57 78 98 127 150 192 220 223 241 249 221 230 230 234 231 231 231 243 245 247 248 247 248 246 246 245 242 241 240 239 241 242 243 246
5 5 12 15 26 39 40 41 47 57 67 80 90 92 98 112 205 231 235 244 238 234 227 235 232 232 234 240 245 249 247 246 247 246 245 244 243 242 241 242 244 245 248
357 1 8 8 11 25 31 37 44 48 45 51 53 64 56 51 68 101 186 240 244 241 241 238 236 234 229 233 242 240 246 245 243 242 244 246 246 248 248 245 244 245 249
342 348 -0 6 14 15 17 30 30 36 36 38 31 27 23 21 19 23 13 284 243 230 238 244 242 234 238 239 234 235 236 239 250 245 241 246 247 246 245 243 244 244 246
331 340 354 0 10 19 20 13 15 19 19 23 28 14 8 8 9 12 8 359 341 320 244 242 243 245 247 247 245 244 238 243 241 239 236 241 242 241 246 244 244 245 245
324 329 342 355 5 15 24 23 6 4 358 6 11 11 0 358 352 359 10 351 351 46 149 194 222 226 231 238 244 248 248 244 244 238 235 231 239 245 244 251 246 254 249
299 320 338 350 358 5 7 9 360 2 360 356 353 346 355 355 360 0 15 8 354 8 96 101 106 113 128 146 200 223 237 242 240 237 238 238 235 237 243 246 245 245 238
268 294 329 341 348 354 358 359 352 352 354 353 350 348 351 357 357 0 8 10 24 48 71 95 101 107 110 118 126 127 134 151 193 227 235 235 233 230 228 229 223 224 224
244 267 293 313 331 340 345 348 345 341 339 342 341 344 347 352 358 5 12 14 24 37 50 62 80 88 111 111 125 130 131 127 123 130 134 153 168 181 190 190 193 195 195
239 252 276 294 307 318 324 330 328 328 329 329 331 342 342 344 359 14 24 33 24 0 13 20 35 38 15 6 356 355 170 161 161 158 154 158 158 162 165 164 165 173 181
238 250 264 280 294 303 310 312 311 313 312 313 315 317 338 344 347 356 5 19 30 21 346 321 335 344 357 8 345 330 332 341 187 168 178 182 186 189 179 178 176 177 181
240 251 266 277 283 291 295 298 302 298 298 300 303 305 304 315 323 333 328 338 351 359 350 347 347 320 314 316 331 340 347 331 316 301 251 225 215 209 210 205 200 193 193
244 252 262 270 277 281 283 288 286 290 287 287 288 290 291 290 290 295 297 302 305 317 327 330 327 333 340 315 294 298 302 317 332 312 280 256 237 225 222 218 212 212 214
246 255 261 263 267 276 279 280 277 273 281 280 282 283 280 279 278 275 277 280 285 290 295 309 322 323 313 304 278 229 259 263 259 249 234 226 232 241 237 230 220 215 219
254 258 261 265 270 270 271 262 264 269 270 272 270 265 264 266 268 271 271 270 271 273 278 274 285 301 307 298 277 249 224 225 222 225 218 216 221 230 243 249 245 241 241
245 257 262 265 265 267 267 264 261 259 261 264 264 264 263 267 267 268 266 265 265 267 270 269 262 254 264 276 281 265 247 244 243 241 246 243 241 236 229 225 220 219 222